TimeEST,TemperatureF,Dew PointF,Humidity,Sea Level PressureIn,VisibilityMPH,Wind Direction,Wind SpeedMPH,Gust SpeedMPH,PrecipitationIn,Events,Conditions,WindDirDegrees,DateUTC
12:15 AM,28.2,20.8,74,30.09,10.0,NNE,6.9,-,N/A,,Overcast,30,2013-03-06 05:15:00
12:34 AM,28.9,21.7,74,30.09,10.0,NNE,6.9,-,N/A,,Overcast,30,2013-03-06 05:34:00
12:55 AM,29.1,22.1,75,30.09,10.0,NE,8.1,-,N/A,,Overcast,50,2013-03-06 05:55:00
1:14 AM,29.3,22.1,75,30.10,10.0,NE,8.1,-,N/A,,Overcast,50,2013-03-06 06:14:00
1:34 AM,29.3,22.5,76,30.10,10.0,ENE,8.1,-,N/A,,Overcast,60,2013-03-06 06:34:00
1:55 AM,29.3,23.0,77,30.10,10.0,NE,8.1,-,N/A,,Overcast,50,2013-03-06 06:55:00
2:14 AM,29.3,23.4,78,30.11,10.0,ENE,8.1,-,N/A,,Overcast,60,2013-03-06 07:14:00
2:35 AM,29.5,23.7,79,30.12,10.0,ENE,5.8,-,N/A,,Overcast,70,2013-03-06 07:35:00
2:54 AM,29.3,23.9,80,30.11,10.0,ENE,6.9,-,N/A,,Overcast,60,2013-03-06 07:54:00
3:14 AM,29.7,24.3,80,30.11,10.0,East,6.9,-,N/A,,Overcast,80,2013-03-06 08:14:00
3:35 AM,29.3,24.4,82,30.11,10.0,East,6.9,-,N/A,,Mostly Cloudy,90,2013-03-06 08:35:00
3:54 AM,29.3,24.3,81,30.11,10.0,ENE,5.8,-,N/A,,Overcast,70,2013-03-06 08:54:00
4:15 AM,29.1,24.3,82,30.12,10.0,ENE,9.2,-,N/A,,Overcast,60,2013-03-06 09:15:00
4:35 AM,29.3,24.3,81,30.13,10.0,ENE,9.2,-,N/A,,Overcast,70,2013-03-06 09:35:00
4:54 AM,28.6,23.9,83,30.13,10.0,ENE,10.4,16.1,N/A,,Scattered Clouds,60,2013-03-06 09:54:00
5:15 AM,28.6,23.9,83,30.14,10.0,ENE,8.1,-,N/A,,Scattered Clouds,60,2013-03-06 10:15:00
5:34 AM,28.9,24.3,83,30.15,10.0,ENE,4.6,-,N/A,,Overcast,60,2013-03-06 10:34:00
5:55 AM,29.1,24.3,82,30.17,10.0,NE,4.6,-,N/A,,Overcast,40,2013-03-06 10:55:00
6:14 AM,29.3,24.6,83,30.17,10.0,NE,4.6,-,N/A,,Overcast,50,2013-03-06 11:14:00
6:34 AM,29.8,24.8,81,30.18,10.0,NE,4.6,-,N/A,,Overcast,50,2013-03-06 11:34:00
6:54 AM,29.8,25.2,83,30.18,10.0,NE,6.9,-,N/A,,Overcast,40,2013-03-06 11:54:00
7:14 AM,30.0,25.5,83,30.18,10.0,NE,5.8,-,N/A,,Overcast,40,2013-03-06 12:14:00
7:35 AM,30.2,25.5,83,30.19,10.0,NE,8.1,-,N/A,,Overcast,40,2013-03-06 12:35:00
7:54 AM,30.9,25.7,81,30.20,10.0,North,5.8,-,N/A,,Overcast,10,2013-03-06 12:54:00
8:15 AM,31.1,25.7,80,30.20,10.0,NE,6.9,-,N/A,,Overcast,40,2013-03-06 13:15:00
8:35 AM,31.6,26.1,80,30.19,10.0,NE,8.1,-,N/A,,Overcast,40,2013-03-06 13:35:00
8:54 AM,32.0,25.7,78,30.19,10.0,NE,9.2,-,N/A,,Mostly Cloudy,40,2013-03-06 13:54:00
9:15 AM,32.2,26.6,80,30.19,10.0,NNE,9.2,-,N/A,,Clear,20,2013-03-06 14:15:00
9:34 AM,31.5,26.6,82,30.20,10.0,North,8.1,-,N/A,,Clear,10,2013-03-06 14:34:00
9:55 AM,31.6,26.6,82,30.20,10.0,North,8.1,-,N/A,,Mostly Cloudy,360,2013-03-06 14:55:00
10:15 AM,32.0,26.8,81,30.20,10.0,North,9.2,-,N/A,,Scattered Clouds,360,2013-03-06 15:15:00
10:34 AM,32.0,27.0,82,30.21,10.0,North,9.2,-,N/A,,Mostly Cloudy,360,2013-03-06 15:34:00
10:55 AM,32.0,26.8,81,30.22,10.0,North,8.1,-,N/A,,Overcast,360,2013-03-06 15:55:00
11:14 AM,32.2,26.8,80,30.21,10.0,North,10.4,-,N/A,,Overcast,10,2013-03-06 16:14:00
11:35 AM,32.0,27.0,82,30.21,10.0,North,10.4,-,N/A,,Overcast,350,2013-03-06 16:35:00
11:54 AM,32.0,26.6,80,30.22,10.0,North,8.1,-,N/A,,Overcast,350,2013-03-06 16:54:00
12:14 PM,32.0,27.1,82,30.22,10.0,North,8.1,-,N/A,,Overcast,350,2013-03-06 17:14:00
12:35 PM,32.2,27.3,82,30.22,10.0,North,8.1,-,N/A,,Overcast,350,2013-03-06 17:35:00
12:53 PM,32.2,27.1,82,30.22,10.0,North,9.2,-,N/A,,Overcast,360,2013-03-06 17:53:00
1:15 PM,32.5,27.5,82,30.22,10.0,North,9.2,-,N/A,,Overcast,350,2013-03-06 18:15:00
1:34 PM,32.2,27.5,83,30.22,10.0,North,8.1,-,N/A,,Overcast,350,2013-03-06 18:34:00
1:55 PM,32.2,27.7,83,30.21,10.0,North,10.4,-,N/A,,Overcast,350,2013-03-06 18:55:00
2:14 PM,32.0,27.5,83,30.21,10.0,North,10.4,-,N/A,,Overcast,350,2013-03-06 19:14:00
2:35 PM,32.2,27.5,83,30.21,10.0,North,10.4,-,N/A,,Overcast,360,2013-03-06 19:35:00
2:55 PM,32.4,27.9,83,30.21,10.0,North,11.5,-,N/A,,Overcast,360,2013-03-06 19:55:00
3:14 PM,32.4,27.9,83,30.22,10.0,North,8.1,-,N/A,,Overcast,350,2013-03-06 20:14:00
3:35 PM,32.4,27.5,82,30.22,10.0,North,5.8,-,N/A,,Overcast,360,2013-03-06 20:35:00
3:55 PM,32.4,27.3,82,30.22,10.0,North,9.2,-,N/A,,Overcast,360,2013-03-06 20:55:00
4:14 PM,32.2,27.7,83,30.22,10.0,North,8.1,-,N/A,,Overcast,360,2013-03-06 21:14:00
4:35 PM,32.2,27.5,83,30.22,10.0,North,9.2,-,N/A,,Overcast,360,2013-03-06 21:35:00
5:14 PM,32.0,27.5,83,30.22,10.0,North,9.2,-,N/A,,Mostly Cloudy,360,2013-03-06 22:14:00
5:35 PM,32.0,29.1,89,30.22,10.0,North,8.1,-,N/A,,Overcast,360,2013-03-06 22:35:00
5:54 PM,32.0,29.5,90,30.22,10.0,North,9.2,-,N/A,,Overcast,360,2013-03-06 22:54:00
6:15 PM,32.0,30.2,93,30.23,10.0,North,9.2,-,N/A,,Overcast,350,2013-03-06 23:15:00
6:35 PM,32.0,30.2,93,30.23,10.0,North,8.1,-,N/A,,Overcast,350,2013-03-06 23:35:00
6:54 PM,32.0,30.6,94,30.24,4.0,North,8.1,-,N/A,Snow,Light Snow,350,2013-03-06 23:54:00
7:15 PM,31.8,30.7,96,30.24,5.0,North,6.9,-,N/A,Snow,Light Snow,350,2013-03-07 00:15:00
7:35 PM,31.5,30.2,95,30.24,5.0,North,10.4,-,N/A,Snow,Light Snow,350,2013-03-07 00:35:00
7:54 PM,31.6,30.6,96,30.25,5.0,NNW,8.1,-,N/A,Snow,Light Snow,340,2013-03-07 00:54:00
8:15 PM,31.1,30.2,96,30.25,4.0,North,11.5,16.1,N/A,Snow,Light Snow,350,2013-03-07 01:15:00
8:34 PM,30.2,29.1,96,30.25,3.0,North,11.5,20.7,N/A,Snow,Light Snow,350,2013-03-07 01:34:00
8:55 PM,30.2,28.9,95,30.25,3.0,NNW,12.7,19.6,N/A,Snow,Light Snow,340,2013-03-07 01:55:00
9:34 PM,29.3,27.7,94,30.27,3.0,North,13.8,19.6,N/A,Snow,Light Snow,350,2013-03-07 02:34:00
9:55 PM,29.3,27.5,93,30.27,5.0,NNW,12.7,17.3,N/A,Snow,Light Snow,340,2013-03-07 02:55:00
10:15 PM,28.4,26.1,91,30.28,4.0,NNW,13.8,20.7,N/A,Snow,Light Snow,330,2013-03-07 03:15:00
10:34 PM,28.2,24.8,87,30.27,7.0,North,17.3,21.9,N/A,,Overcast,350,2013-03-07 03:34:00
10:55 PM,28.0,23.9,84,30.28,10.0,North,13.8,19.6,N/A,,Overcast,350,2013-03-07 03:55:00
11:15 PM,27.9,23.9,85,30.28,10.0,NNW,11.5,-,N/A,Snow,Light Snow,340,2013-03-07 04:15:00
11:34 PM,27.5,22.6,82,30.29,10.0,NNW,13.8,18.4,N/A,,Overcast,340,2013-03-07 04:34:00
11:55 PM,27.5,23.5,85,30.29,10.0,NNW,10.4,17.3,N/A,,Overcast,340,2013-03-07 04:55:00